OVO2254 ENGM-LSZH

Flight info

Callsign OVO2254
Flight time 2h 6m
Altitude 35000
Route VIPPA DCT AMRAK/N0450F360 DCT SWALM DCT OMOGI/N0453F370 T721 RILAX
Aircraft A320/M-SDE3FGHIRWY/LB1

Departure

Time 2026-05-06 12:17
Airport Oslo-Gardermoen International Airport (ENGM)

Arrival

Time 2026-05-06 14:24
Airport Zürich Airport (LSZH)
Time Latitude Longitude Altitude Speed Heading
2026-05-06 11:50 60.19523 11.10168 679 ft 0 kts 264°
2026-05-06 12:02 60.19523 11.10169 679 ft 1 kts 264°
2026-05-06 12:02 60.19526 11.10217 679 ft 4 kts 262°
2026-05-06 12:02 60.19530 11.10270 679 ft 4 kts 260°
2026-05-06 12:02 60.19535 11.10324 677 ft 4 kts 260°
2026-05-06 12:03 60.19538 11.10377 675 ft 4 kts 267°
2026-05-06 12:03 60.19537 11.10421 674 ft 1 kts 287°
2026-05-06 12:03 60.19537 11.10422 674 ft 0 kts 287°
2026-05-06 12:05 60.19541 11.10413 675 ft 1 kts 309°
2026-05-06 12:05 60.19554 11.10394 675 ft 3 kts 333°
2026-05-06 12:05 60.19581 11.10396 679 ft 5 kts
2026-05-06 12:06 60.19619 11.10418 680 ft 6 kts 17°
2026-05-06 12:06 60.19668 11.10445 676 ft 8 kts 15°
2026-05-06 12:06 60.19728 11.10479 680 ft 10 kts 16°
2026-05-06 12:06 60.19800 11.10520 677 ft 12 kts 16°
2026-05-06 12:07 60.19883 11.10568 680 ft 13 kts 16°
2026-05-06 12:07 60.19952 11.10582 680 ft 9 kts 334°
2026-05-06 12:07 60.19984 11.10462 676 ft 11 kts 287°
2026-05-06 12:07 60.20007 11.10296 679 ft 14 kts 286°
2026-05-06 12:08 60.20033 11.10118 679 ft 14 kts 286°
2026-05-06 12:08 60.20063 11.09908 678 ft 17 kts 286°
2026-05-06 12:08 60.20097 11.09663 678 ft 19 kts 286°
2026-05-06 12:08 60.20132 11.09419 676 ft 18 kts 286°
2026-05-06 12:09 60.20163 11.09203 677 ft 16 kts 286°
2026-05-06 12:09 60.20190 11.09021 677 ft 13 kts 286°
2026-05-06 12:09 60.20244 11.08932 677 ft 11 kts 20°
2026-05-06 12:09 60.20324 11.08986 677 ft 13 kts 15°
2026-05-06 12:10 60.20420 11.09038 676 ft 15 kts 15°
2026-05-06 12:10 60.20529 11.09103 676 ft 18 kts 16°
2026-05-06 12:10 60.20655 11.09176 675 ft 20 kts 16°
2026-05-06 12:10 60.20795 11.09256 675 ft 22 kts 15°
2026-05-06 12:11 60.20951 11.09343 674 ft 21 kts 16°
2026-05-06 12:11 60.21089 11.09426 674 ft 12 kts 17°
2026-05-06 12:11 60.21179 11.09479 674 ft 15 kts 16°
2026-05-06 12:11 60.21283 11.09537 673 ft 17 kts 15°
2026-05-06 12:12 60.21396 11.09602 673 ft 17 kts 16°
2026-05-06 12:12 60.21478 11.09636 673 ft 8 kts
2026-05-06 12:12 60.21528 11.09589 672 ft 9 kts 316°
2026-05-06 12:12 60.21555 11.09468 671 ft 10 kts 285°
2026-05-06 12:13 60.21567 11.09378 669 ft 0 kts 285°
2026-05-06 12:15 60.21567 11.09377 669 ft 1 kts 285°
2026-05-06 12:15 60.21570 11.09353 672 ft 3 kts 285°
2026-05-06 12:15 60.21577 11.09303 673 ft 5 kts 284°
2026-05-06 12:16 60.21580 11.09230 673 ft 6 kts 270°
2026-05-06 12:16 60.21557 11.09147 672 ft 8 kts 227°
2026-05-06 12:16 60.21503 11.09104 673 ft 10 kts 195°
2026-05-06 12:16 60.21268 11.08967 673 ft 68 kts 196°
2026-05-06 12:17 60.20624 11.08598 673 ft 122 kts 196°
2026-05-06 12:17 60.19674 11.08034 688 ft 162 kts 197°
2026-05-06 12:17 60.18616 11.07328 1302 ft 156 kts 201°
2026-05-06 12:17 60.17588 11.06633 1965 ft 156 kts 200°
2026-05-06 12:18 60.16613 11.05679 2509 ft 161 kts 223°
2026-05-06 12:18 60.15938 11.03740 2853 ft 181 kts 247°
2026-05-06 12:18 60.15407 11.01271 3174 ft 204 kts 247°
2026-05-06 12:18 60.14816 10.98518 3482 ft 226 kts 247°
2026-05-06 12:19 60.14158 10.95461 3901 ft 249 kts 247°
2026-05-06 12:19 60.13445 10.92239 4700 ft 255 kts 246°
2026-05-06 12:19 60.12710 10.89028 5584 ft 258 kts 246°
2026-05-06 12:19 60.11948 10.85742 6484 ft 261 kts 245°
2026-05-06 12:20 60.11176 10.82426 7373 ft 264 kts 245°
2026-05-06 12:20 60.10396 10.79072 8246 ft 267 kts 245°
2026-05-06 12:20 60.09610 10.75688 9080 ft 270 kts 245°
2026-05-06 12:20 60.08810 10.72268 9918 ft 272 kts 245°
2026-05-06 12:21 60.07990 10.68762 10395 ft 288 kts 245°
2026-05-06 12:21 60.07111 10.64986 10596 ft 310 kts 245°
2026-05-06 12:21 60.06081 10.61095 11060 ft 321 kts 236°
2026-05-06 12:21 60.04583 10.57738 11782 ft 326 kts 223°
2026-05-06 12:22 60.02684 10.55232 12524 ft 331 kts 209°
2026-05-06 12:22 60.00479 10.53776 13278 ft 338 kts 195°
2026-05-06 12:22 59.98150 10.52991 13972 ft 340 kts 194°
2026-05-06 12:22 59.95806 10.52217 14608 ft 342 kts 195°
2026-05-06 12:23 59.93447 10.51435 15265 ft 344 kts 195°
2026-05-06 12:23 59.91080 10.50647 15912 ft 346 kts 195°
2026-05-06 12:23 59.88702 10.49849 16545 ft 347 kts 196°
2026-05-06 12:23 59.86314 10.49047 17161 ft 349 kts 196°
2026-05-06 12:24 59.83910 10.48243 17777 ft 351 kts 196°
2026-05-06 12:24 59.81494 10.47438 18374 ft 353 kts 196°
2026-05-06 12:24 59.77048 10.45965 19379 ft 357 kts 197°
2026-05-06 12:25 59.74594 10.45157 19896 ft 359 kts 196°
2026-05-06 12:25 59.72123 10.44349 20433 ft 361 kts 197°
2026-05-06 12:25 59.69638 10.43534 20978 ft 363 kts 197°
2026-05-06 12:25 59.68690 10.43221 21191 ft 364 kts 197°
2026-05-06 12:26 59.66186 10.42394 21728 ft 366 kts 197°
2026-05-06 12:26 59.63669 10.41562 22229 ft 368 kts 197°
2026-05-06 12:26 59.61140 10.40728 22726 ft 369 kts 197°
2026-05-06 12:26 59.58599 10.39893 23222 ft 371 kts 197°
2026-05-06 12:27 59.56049 10.39042 23675 ft 373 kts 197°
2026-05-06 12:27 59.53488 10.38173 24082 ft 374 kts 197°
2026-05-06 12:27 59.50917 10.37293 24497 ft 375 kts 197°
2026-05-06 12:27 59.48338 10.36413 24909 ft 377 kts 197°
2026-05-06 12:28 59.45750 10.35536 25269 ft 378 kts 197°
2026-05-06 12:28 59.43153 10.34666 25661 ft 380 kts 197°
2026-05-06 12:28 59.40544 10.33794 26052 ft 381 kts 197°
2026-05-06 12:28 59.37926 10.32917 26439 ft 383 kts 197°
2026-05-06 12:29 59.35295 10.32035 26834 ft 384 kts 197°
2026-05-06 12:29 59.32689 10.31168 27223 ft 386 kts 197°
2026-05-06 12:29 59.30037 10.30286 27608 ft 388 kts 197°
2026-05-06 12:29 59.27373 10.29402 27990 ft 389 kts 197°
2026-05-06 12:30 59.24698 10.28512 28377 ft 391 kts 197°
2026-05-06 12:30 59.22013 10.27616 28763 ft 392 kts 197°
2026-05-06 12:30 59.19318 10.26720 29066 ft 394 kts 197°
2026-05-06 12:30 59.16597 10.25888 29383 ft 400 kts 192°
2026-05-06 12:31 59.13813 10.25513 29831 ft 401 kts 191°
2026-05-06 12:31 59.11035 10.25152 30304 ft 399 kts 191°
2026-05-06 12:31 59.08271 10.24781 30743 ft 397 kts 191°
2026-05-06 12:31 59.05516 10.24406 31186 ft 396 kts 191°
2026-05-06 12:32 59.00331 10.23684 32000 ft 393 kts 192°
2026-05-06 12:32 58.97607 10.23305 32450 ft 392 kts 191°
2026-05-06 12:32 58.94891 10.22936 32890 ft 391 kts 191°
2026-05-06 12:33 58.92183 10.22576 33326 ft 390 kts 191°
2026-05-06 12:33 58.89478 10.22228 33704 ft 389 kts 191°
2026-05-06 12:33 58.86782 10.21891 34088 ft 388 kts 191°
2026-05-06 12:33 58.84088 10.21552 34397 ft 388 kts 191°
2026-05-06 12:34 58.81385 10.21207 34655 ft 390 kts 191°
2026-05-06 12:34 58.78675 10.20855 34889 ft 391 kts 191°
2026-05-06 12:34 58.73185 10.20138 35003 ft 401 kts 190°
2026-05-06 12:35 58.67587 10.19420 35002 ft 404 kts 190°
2026-05-06 12:35 58.61965 10.18709 34961 ft 405 kts 190°
2026-05-06 12:36 58.56336 10.17992 35002 ft 406 kts 190°
2026-05-06 12:36 58.50695 10.17287 35004 ft 406 kts 190°
2026-05-06 12:37 58.45050 10.16575 35008 ft 407 kts 190°
2026-05-06 12:37 58.39401 10.15851 35010 ft 407 kts 190°
2026-05-06 12:38 58.33747 10.15140 35014 ft 407 kts 189°
2026-05-06 12:38 58.28089 10.14445 35019 ft 407 kts 190°
2026-05-06 12:39 58.22432 10.13742 35021 ft 407 kts 190°
2026-05-06 12:39 58.16814 10.13042 35018 ft 407 kts 190°
2026-05-06 12:40 58.11160 10.12336 35015 ft 407 kts 190°
2026-05-06 12:40 58.05505 10.11629 34989 ft 407 kts 189°
2026-05-06 12:41 57.99844 10.10924 34994 ft 408 kts 189°
2026-05-06 12:41 57.94174 10.10230 34997 ft 409 kts 189°
2026-05-06 12:42 57.88496 10.09544 35004 ft 409 kts 189°
2026-05-06 12:42 57.82819 10.08853 35002 ft 409 kts 189°
2026-05-06 12:43 57.77138 10.08162 34974 ft 409 kts 189°
2026-05-06 12:43 57.71454 10.07468 34982 ft 410 kts 189°
2026-05-06 12:44 57.65763 10.06786 34990 ft 410 kts 189°
2026-05-06 12:44 57.60070 10.06108 34991 ft 410 kts 189°
2026-05-06 12:45 57.54376 10.05421 34995 ft 410 kts 189°
2026-05-06 12:46 57.45835 10.04392 34983 ft 410 kts 189°
2026-05-06 12:46 57.40143 10.03717 34987 ft 410 kts 189°
2026-05-06 12:47 57.34455 10.03031 34991 ft 410 kts 189°
2026-05-06 12:47 57.28804 10.02357 34990 ft 410 kts 189°
2026-05-06 12:48 57.23117 10.01689 34962 ft 409 kts 188°
2026-05-06 12:48 57.17432 10.01027 34976 ft 409 kts 188°
2026-05-06 12:49 57.11747 10.00369 34986 ft 409 kts 188°
2026-05-06 12:49 57.06060 9.99712 34990 ft 409 kts 188°
2026-05-06 12:50 57.00376 9.99050 34990 ft 409 kts 188°
2026-05-06 12:50 56.94692 9.98378 34946 ft 409 kts 188°
2026-05-06 12:51 56.89003 9.97698 34953 ft 410 kts 188°
2026-05-06 12:51 56.83305 9.97046 34955 ft 410 kts 188°
2026-05-06 12:52 56.77604 9.96403 34951 ft 411 kts 188°
2026-05-06 12:52 56.71901 9.95749 34937 ft 411 kts 188°
2026-05-06 12:53 56.66191 9.95095 34930 ft 411 kts 188°
2026-05-06 12:53 56.60477 9.94446 34938 ft 412 kts 188°
2026-05-06 12:54 56.54759 9.93798 34943 ft 412 kts 188°
2026-05-06 12:54 56.49038 9.93145 34949 ft 412 kts 188°
2026-05-06 12:55 56.43315 9.92492 34928 ft 412 kts 187°
2026-05-06 12:55 56.37591 9.91847 34935 ft 413 kts 187°
2026-05-06 12:56 56.31858 9.91202 34940 ft 413 kts 187°
2026-05-06 12:56 56.26123 9.90559 34944 ft 413 kts 187°
2026-05-06 12:57 56.20385 9.89921 34945 ft 413 kts 187°
2026-05-06 12:57 56.14645 9.89280 34928 ft 413 kts 187°
2026-05-06 12:58 56.08899 9.88639 34929 ft 414 kts 187°
2026-05-06 12:58 56.03148 9.88002 34935 ft 414 kts 187°
2026-05-06 12:59 55.97394 9.87368 34938 ft 414 kts 187°
2026-05-06 12:59 55.91636 9.86728 34941 ft 415 kts 187°
2026-05-06 13:00 55.85872 9.86096 34928 ft 415 kts 187°
2026-05-06 13:00 55.80108 9.85475 34937 ft 415 kts 187°
2026-05-06 13:01 55.74339 9.84850 34939 ft 415 kts 187°
2026-05-06 13:01 55.68568 9.84223 34940 ft 415 kts 187°
2026-05-06 13:02 55.62795 9.83590 34942 ft 416 kts 187°
2026-05-06 13:02 55.57024 9.82955 34943 ft 416 kts 187°
2026-05-06 13:03 55.51252 9.82331 34942 ft 416 kts 187°
2026-05-06 13:03 55.45477 9.81717 34942 ft 416 kts 187°
2026-05-06 13:04 55.39704 9.81103 34942 ft 416 kts 187°
2026-05-06 13:04 55.33929 9.80478 34920 ft 416 kts 186°
2026-05-06 13:05 55.28143 9.79844 34921 ft 417 kts 186°
2026-05-06 13:05 55.22351 9.79234 34925 ft 417 kts 186°
2026-05-06 13:06 55.16548 9.78636 34923 ft 418 kts 186°
2026-05-06 13:06 55.10788 9.78037 34920 ft 418 kts 186°
2026-05-06 13:07 55.04991 9.77430 34929 ft 417 kts 186°
2026-05-06 13:07 54.99197 9.76815 34931 ft 417 kts 186°
2026-05-06 13:08 54.93406 9.76202 34935 ft 417 kts 186°
2026-05-06 13:08 54.87612 9.75594 34934 ft 417 kts 186°
2026-05-06 13:09 54.81823 9.74991 34919 ft 417 kts 185°
2026-05-06 13:09 54.76045 9.74224 34923 ft 416 kts 187°
2026-05-06 13:10 54.70284 9.73325 34918 ft 416 kts 187°
2026-05-06 13:10 54.64525 9.72457 34909 ft 415 kts 187°
2026-05-06 13:11 54.58767 9.71622 34896 ft 415 kts 186°
2026-05-06 13:11 54.53005 9.70801 34891 ft 415 kts 186°
2026-05-06 13:12 54.48219 9.70109 34893 ft 415 kts 186°
2026-05-06 13:12 54.41490 9.69140 34898 ft 415 kts 186°
2026-05-06 13:13 54.36704 9.68465 34895 ft 415 kts 186°
2026-05-06 13:13 54.30939 9.67648 34881 ft 416 kts 186°
2026-05-06 13:14 54.25162 9.66826 34880 ft 417 kts 186°
2026-05-06 13:14 54.19370 9.65989 34880 ft 418 kts 186°
2026-05-06 13:15 54.13573 9.65161 34872 ft 418 kts 186°
2026-05-06 13:15 54.07770 9.64352 34874 ft 419 kts 186°
2026-05-06 13:16 54.01949 9.63541 34874 ft 420 kts 186°
2026-05-06 13:16 53.96122 9.62728 34865 ft 420 kts 186°
2026-05-06 13:17 53.90289 9.61912 34862 ft 421 kts 186°
2026-05-06 13:17 53.84454 9.61089 34857 ft 421 kts 186°
2026-05-06 13:18 53.78608 9.60262 34854 ft 422 kts 186°
2026-05-06 13:18 53.72745 9.59462 34863 ft 423 kts 186°
2026-05-06 13:19 53.66866 9.58660 34868 ft 424 kts 186°
2026-05-06 13:19 53.60975 9.57839 34882 ft 425 kts 186°
2026-05-06 13:20 53.55083 9.57032 34870 ft 425 kts 186°
2026-05-06 13:20 53.49180 9.56226 34867 ft 426 kts 186°
2026-05-06 13:21 53.43266 9.55415 34848 ft 427 kts 186°
2026-05-06 13:21 53.37346 9.54610 34852 ft 427 kts 186°
2026-05-06 13:22 53.31456 9.53808 34849 ft 428 kts 186°
2026-05-06 13:22 53.25522 9.53004 34854 ft 428 kts 186°
2026-05-06 13:23 53.19591 9.52201 34855 ft 427 kts 186°
2026-05-06 13:23 53.13668 9.51394 34850 ft 427 kts 186°
2026-05-06 13:24 53.07740 9.50599 34852 ft 427 kts 186°
2026-05-06 13:24 53.01811 9.49806 34853 ft 427 kts 186°
2026-05-06 13:25 52.95881 9.49012 34848 ft 428 kts 186°
2026-05-06 13:25 52.89949 9.48228 34847 ft 427 kts 186°
2026-05-06 13:26 52.84021 9.47449 34842 ft 427 kts 186°
2026-05-06 13:26 52.78092 9.46654 34844 ft 427 kts 186°
2026-05-06 13:27 52.72162 9.45867 34840 ft 428 kts 186°
2026-05-06 13:27 52.66230 9.45078 34842 ft 428 kts 186°
2026-05-06 13:28 52.60297 9.44298 34835 ft 428 kts 186°
2026-05-06 13:28 52.54355 9.43526 34842 ft 428 kts 186°
2026-05-06 13:29 52.48413 9.42747 34842 ft 428 kts 186°
2026-05-06 13:29 52.42473 9.41966 34840 ft 428 kts 186°
2026-05-06 13:30 52.36531 9.41208 34837 ft 428 kts 186°
2026-05-06 13:30 52.30594 9.40438 34838 ft 428 kts 186°
2026-05-06 13:31 52.24656 9.39671 34836 ft 428 kts 186°
2026-05-06 13:31 52.18724 9.38908 34828 ft 428 kts 186°
2026-05-06 13:32 52.12792 9.38145 34817 ft 428 kts 186°
2026-05-06 13:32 52.06862 9.37374 34824 ft 427 kts 187°
2026-05-06 13:33 52.00942 9.36610 34817 ft 427 kts 186°
2026-05-06 13:33 51.95026 9.35854 34808 ft 426 kts 186°
2026-05-06 13:34 51.89113 9.35101 34800 ft 426 kts 187°
2026-05-06 13:34 51.83201 9.34349 34803 ft 426 kts 186°
2026-05-06 13:35 51.77287 9.33605 34796 ft 426 kts 186°
2026-05-06 13:35 51.71377 9.32863 34793 ft 426 kts 187°
2026-05-06 13:36 51.65465 9.32122 34782 ft 426 kts 187°
2026-05-06 13:36 51.59551 9.31378 34782 ft 426 kts 187°
2026-05-06 13:37 51.53643 9.30630 34790 ft 426 kts 187°
2026-05-06 13:37 51.47742 9.29879 34789 ft 425 kts 187°
2026-05-06 13:38 51.41845 9.29143 34772 ft 425 kts 186°
2026-05-06 13:38 51.35994 9.28421 34776 ft 424 kts 186°
2026-05-06 13:39 51.30113 9.27694 34789 ft 424 kts 186°
2026-05-06 13:39 51.24236 9.26970 34793 ft 423 kts 186°
2026-05-06 13:40 51.18365 9.26245 34788 ft 423 kts 186°
2026-05-06 13:40 51.12496 9.25531 34791 ft 423 kts 186°
2026-05-06 13:41 51.06635 9.24816 34791 ft 422 kts 186°
2026-05-06 13:41 51.00773 9.24090 34792 ft 423 kts 186°
2026-05-06 13:42 50.94906 9.23374 34779 ft 423 kts 186°
2026-05-06 13:42 50.89048 9.22670 34770 ft 422 kts 186°
2026-05-06 13:43 50.83197 9.21886 34764 ft 421 kts 188°
2026-05-06 13:43 50.77400 9.20534 34757 ft 421 kts 191°
2026-05-06 13:44 50.71628 9.18953 34754 ft 421 kts 191°
2026-05-06 13:44 50.65843 9.17446 34759 ft 422 kts 191°
2026-05-06 13:45 50.60063 9.16041 34760 ft 422 kts 191°
2026-05-06 13:45 50.51365 9.13949 34755 ft 421 kts 191°
2026-05-06 13:46 50.45571 9.12548 34767 ft 421 kts 190°
2026-05-06 13:46 50.39782 9.11159 34771 ft 421 kts 191°
2026-05-06 13:47 50.33996 9.09766 34772 ft 420 kts 191°
2026-05-06 13:47 50.28256 9.08384 34772 ft 420 kts 190°
2026-05-06 13:48 50.22492 9.06993 34781 ft 419 kts 190°
2026-05-06 13:48 50.16741 9.05612 34784 ft 418 kts 190°
2026-05-06 13:49 50.10989 9.04243 34786 ft 418 kts 190°
2026-05-06 13:49 50.05244 9.02875 34787 ft 418 kts 190°
2026-05-06 13:50 49.99497 9.01509 34782 ft 418 kts 190°
2026-05-06 13:50 49.93749 9.00149 34787 ft 418 kts 190°
2026-05-06 13:51 49.87994 8.98784 34785 ft 418 kts 190°
2026-05-06 13:51 49.82237 8.97435 34788 ft 418 kts 190°
2026-05-06 13:52 49.76476 8.96085 34786 ft 419 kts 190°
2026-05-06 13:52 49.70719 8.94724 34789 ft 419 kts 190°
2026-05-06 13:53 49.64954 8.93375 34790 ft 419 kts 190°
2026-05-06 13:53 49.59188 8.92028 34799 ft 419 kts 191°
2026-05-06 13:54 49.53431 8.90688 34809 ft 418 kts 190°
2026-05-06 13:54 49.47674 8.89368 34812 ft 418 kts 190°
2026-05-06 13:55 49.41930 8.88039 34811 ft 418 kts 190°
2026-05-06 13:55 49.36185 8.86694 34804 ft 417 kts 191°
2026-05-06 13:56 49.31414 8.85586 34810 ft 417 kts 190°
2026-05-06 13:56 49.24708 8.84043 34812 ft 417 kts 190°
2026-05-06 13:57 49.19944 8.82955 34808 ft 417 kts 190°
2026-05-06 13:57 49.13244 8.81423 34809 ft 416 kts 191°
2026-05-06 13:58 49.08494 8.80329 34816 ft 415 kts 191°
2026-05-06 13:58 49.02789 8.79025 34816 ft 414 kts 191°
2026-05-06 13:59 48.97087 8.77730 34623 ft 414 kts 191°
2026-05-06 13:59 48.94248 8.77087 34385 ft 412 kts 191°
2026-05-06 13:59 48.91421 8.76445 34153 ft 410 kts 191°
2026-05-06 14:00 48.88602 8.75805 33922 ft 409 kts 191°
2026-05-06 14:00 48.85790 8.75167 33671 ft 408 kts 191°
2026-05-06 14:00 48.82983 8.74530 33388 ft 408 kts 191°
2026-05-06 14:00 48.80177 8.73896 33116 ft 408 kts 190°
2026-05-06 14:01 48.77365 8.73261 32845 ft 409 kts 190°
2026-05-06 14:01 48.74550 8.72627 32572 ft 410 kts 190°
2026-05-06 14:01 48.71736 8.71991 32302 ft 408 kts 190°
2026-05-06 14:01 48.68935 8.71360 32041 ft 406 kts 189°
2026-05-06 14:02 48.66148 8.70733 31777 ft 404 kts 189°
2026-05-06 14:02 48.63377 8.70112 31519 ft 401 kts 189°
2026-05-06 14:02 48.60621 8.69495 31259 ft 399 kts 189°
2026-05-06 14:02 48.57883 8.68880 31008 ft 397 kts 189°
2026-05-06 14:03 48.55159 8.68268 30754 ft 395 kts 189°
2026-05-06 14:03 48.52450 8.67660 30504 ft 393 kts 189°
2026-05-06 14:03 48.49750 8.67061 30258 ft 391 kts 189°
2026-05-06 14:03 48.47059 8.66465 30016 ft 390 kts 189°
2026-05-06 14:04 48.44379 8.65870 29758 ft 389 kts 189°
2026-05-06 14:04 48.41707 8.65279 29467 ft 388 kts 188°
2026-05-06 14:04 48.39041 8.64688 29185 ft 387 kts 189°
2026-05-06 14:04 48.36384 8.64054 28902 ft 386 kts 190°
2026-05-06 14:05 48.33752 8.63306 28621 ft 385 kts 191°
2026-05-06 14:05 48.31133 8.62487 28349 ft 384 kts 192°
2026-05-06 14:05 48.28524 8.61649 28080 ft 383 kts 192°
2026-05-06 14:05 48.25926 8.60820 27805 ft 382 kts 192°
2026-05-06 14:06 48.23330 8.60010 27534 ft 381 kts 192°
2026-05-06 14:06 48.20737 8.59220 27259 ft 379 kts 191°
2026-05-06 14:06 48.18203 8.58454 26800 ft 374 kts 191°
2026-05-06 14:06 48.15627 8.57679 26284 ft 371 kts 191°
2026-05-06 14:07 48.13138 8.56937 25792 ft 368 kts 191°
2026-05-06 14:07 48.10629 8.56192 25302 ft 366 kts 191°
2026-05-06 14:07 48.08138 8.55456 24825 ft 364 kts 191°
2026-05-06 14:07 48.05660 8.54723 24363 ft 363 kts 191°
2026-05-06 14:08 48.03190 8.53991 23903 ft 361 kts 191°
2026-05-06 14:08 48.00733 8.53262 23451 ft 359 kts 190°
2026-05-06 14:08 47.98288 8.52541 22949 ft 357 kts 190°
2026-05-06 14:08 47.95864 8.51875 22500 ft 352 kts 186°
2026-05-06 14:09 47.93433 8.51781 22049 ft 348 kts 175°
2026-05-06 14:09 47.91061 8.52365 21592 ft 344 kts 168°
2026-05-06 14:09 47.88728 8.53117 21147 ft 341 kts 168°
2026-05-06 14:09 47.86412 8.53849 20680 ft 339 kts 168°
2026-05-06 14:10 47.84110 8.54572 20227 ft 337 kts 168°
2026-05-06 14:10 47.81813 8.55289 19755 ft 337 kts 169°
2026-05-06 14:10 47.79525 8.55997 19287 ft 335 kts 169°
2026-05-06 14:10 47.77241 8.56704 18811 ft 335 kts 169°
2026-05-06 14:11 47.74963 8.57411 18326 ft 335 kts 169°
2026-05-06 14:11 47.72683 8.58119 17798 ft 334 kts 169°
2026-05-06 14:11 47.70425 8.58907 17304 ft 333 kts 163°
2026-05-06 14:11 47.68313 8.60308 16809 ft 334 kts 151°
2026-05-06 14:12 47.66454 8.62376 16334 ft 335 kts 138°
2026-05-06 14:12 47.64913 8.64983 15838 ft 337 kts 131°
2026-05-06 14:12 47.63446 8.67692 15342 ft 337 kts 131°
2026-05-06 14:12 47.61967 8.70391 14854 ft 337 kts 131°
2026-05-06 14:13 47.60483 8.73089 14354 ft 338 kts 131°
2026-05-06 14:13 47.58996 8.75790 13854 ft 339 kts 132°
2026-05-06 14:13 47.57510 8.78496 13320 ft 339 kts 131°
2026-05-06 14:13 47.56228 8.81437 12824 ft 341 kts 118°
2026-05-06 14:14 47.55434 8.84729 12454 ft 340 kts 105°
2026-05-06 14:14 47.55103 8.88198 11977 ft 341 kts 98°
2026-05-06 14:14 47.54853 8.91683 11495 ft 340 kts 98°
2026-05-06 14:14 47.54600 8.95168 11015 ft 341 kts 98°
2026-05-06 14:15 47.54341 8.98669 10469 ft 343 kts 99°
2026-05-06 14:15 47.53679 9.01982 10188 ft 329 kts 124°
2026-05-06 14:15 47.52222 9.04408 10096 ft 307 kts 150°
2026-05-06 14:15 47.50361 9.05623 9952 ft 280 kts 174°
2026-05-06 14:16 47.48488 9.05701 9481 ft 265 kts 192°
2026-05-06 14:16 47.46713 9.05177 8892 ft 258 kts 204°
2026-05-06 14:16 47.45138 9.03940 8206 ft 254 kts 221°
2026-05-06 14:16 47.43975 9.02191 7908 ft 225 kts 236°
2026-05-06 14:17 47.43253 9.00310 7685 ft 204 kts 249°
2026-05-06 14:17 47.42874 8.98383 7449 ft 190 kts 260°
2026-05-06 14:17 47.42790 8.96427 7198 ft 189 kts 271°
2026-05-06 14:17 47.42921 8.94525 6936 ft 188 kts 274°
2026-05-06 14:18 47.43065 8.92610 6669 ft 187 kts 274°
2026-05-06 14:18 47.43207 8.90708 6410 ft 186 kts 274°
2026-05-06 14:18 47.43349 8.88805 6148 ft 186 kts 274°
2026-05-06 14:18 47.43489 8.86908 5851 ft 186 kts 274°
2026-05-06 14:19 47.43630 8.85014 5582 ft 185 kts 274°
2026-05-06 14:19 47.43768 8.83132 5308 ft 184 kts 275°
2026-05-06 14:19 47.43906 8.81257 5038 ft 183 kts 275°
2026-05-06 14:19 47.44043 8.79388 4776 ft 183 kts 274°
2026-05-06 14:20 47.44180 8.77527 4516 ft 178 kts 274°
2026-05-06 14:20 47.44309 8.75775 4248 ft 166 kts 274°
2026-05-06 14:20 47.44428 8.74144 3999 ft 154 kts 273°
2026-05-06 14:20 47.44539 8.72614 3784 ft 146 kts 273°
2026-05-06 14:21 47.44645 8.71153 3581 ft 140 kts 273°
2026-05-06 14:21 47.44747 8.69742 3382 ft 135 kts 273°
2026-05-06 14:21 47.44847 8.68362 3172 ft 135 kts 273°
2026-05-06 14:21 47.44946 8.66994 2973 ft 134 kts 273°
2026-05-06 14:22 47.45044 8.65632 2775 ft 133 kts 273°
2026-05-06 14:22 47.45142 8.64273 2571 ft 133 kts 273°
2026-05-06 14:22 47.45240 8.62907 2357 ft 133 kts 274°
2026-05-06 14:22 47.45337 8.61557 2153 ft 133 kts 273°
2026-05-06 14:23 47.45434 8.60203 1938 ft 131 kts 274°
2026-05-06 14:23 47.45546 8.58857 1695 ft 132 kts 276°
2026-05-06 14:23 47.45661 8.57521 1523 ft 131 kts 272°
2026-05-06 14:23 47.45726 8.56217 1407 ft 117 kts 272°
2026-05-06 14:24 47.45775 8.55320 1394 ft 32 kts 276°
2026-05-06 14:24 47.45823 8.55093 1400 ft 21 kts 315°